Tracking 25964 objects as of 11-Aug-2022
HD Live streaming from Space Station
objects crossing your sky now

STARLINK-1560

Track STARLINK-1560 now!
10-day predictions
STARLINK-1560 is classified as:


NORAD ID: 46036
Int'l Code: 2020-055K
Perigee: 553.2 km
Apogee: 555.5 km
Inclination: 53.1 °
Period: 95.6 minutes
Semi major axis: 6925 km
RCS: Unknown
Launch date: August 7, 2020
Source: United States (US)
Launch site: AIR FORCE EASTERN TEST RANGE (AFETR)
aabbcc
Your satellite tracking list
Your tracking list is empty




NASA's NSSDC Master Catalog

Two Line Element Set (TLE):
1 46036U 20055K   22223.49467990 -.00000279  00000-0  15014-6 0  9996
2 46036  53.0539 230.3653 0001712  59.2998 300.8160 15.06399716112022
Source of the keplerian elements: AFSPC